When you browse on this site, cookies collect data to enhance your experience and personalize the content and advertising you see.
Visit our Privacy Policy to learn more. By continuing to use the site, you agree to this use of cookies and data.
  • In Lithuania
  • List of Countries
  • For 7 days
  • Water Temperature
  • Satellite Maps
  • Weather Map
  • Weather Widgets
  • user-avatar
    Login

    Hourly Weather Nizhenka

    Today, 25 March, Monday

    Time Temperature Precipitation Wind Pressure Humidity
    00:00 -4°C° 0 mm 4 mps 738 mmHg 91%
    01:00 -4°C° 0 mm 4 mps 738 mmHg 90%
    02:00 -5°C° 0 mm 4 mps 738 mmHg 89%
    03:00 -5°C° 0 mm 4 mps 738 mmHg 88%
    04:00 -5°C° 0 mm 4 mps 738 mmHg 88%
    05:00 -5°C° 0 mm 4 mps 738 mmHg 88%
    06:00 -7°C° 0 mm 4 mps 738 mmHg 88%
    07:00 -5°C° 0 mm 4 mps 739 mmHg 88%
    08:00 -4°C° 0 mm 4 mps 739 mmHg 87%
    09:00 -3°C° 0 mm 4 mps 739 mmHg 86%
    10:00 -3°C° 0 mm 4 mps 739 mmHg 88%
    11:00 -2°C° 0 mm 4 mps 739 mmHg 89%
    12:00 -1°C° 0 mm 4 mps 739 mmHg 91%
    13:00 -1°C° 0 mm 4 mps 739 mmHg 92%
    14:00 -1°C° 0 mm 4 mps 739 mmHg 92%
    15:00 -1°C° 0 mm 4 mps 740 mmHg 93%
    16:00 0°C° 0 mm 3 mps 739 mmHg 92%
    17:00 -1°C° 0 mm 3 mps 739 mmHg 92%
    18:00 -1°C° 0 mm 3 mps 739 mmHg 91%
    19:00 -2°C° 0 mm 3 mps 740 mmHg 89%
    20:00 -2°C° 0 mm 3 mps 740 mmHg 87%
    21:00 -2°C° 0 mm 3 mps 740 mmHg 85%
    22:00 -2°C° 0 mm 3 mps 740 mmHg 84%
    23:00 -4°C° 0 mm 3 mps 739 mmHg 83%

    Tomorrow, 26 March, Tuesday

    Time Temperature Precipitation Wind Pressure Humidity
    00:00 -4°C° 0 mm 3 mps 739 mmHg 82%
    01:00 -2°C° 0 mm 3 mps 739 mmHg 82%
    02:00 -2°C° 0 mm 3 mps 739 mmHg 82%
    03:00 -1°C° 0 mm 3 mps 739 mmHg 82%
    04:00 -1°C° 0.3 mm 3 mps 738 mmHg 84%
    05:00 -1°C° 0.3 mm 2 mps 738 mmHg 87%
    06:00 -1°C° 0.3 mm 2 mps 737 mmHg 89%
    07:00 +1°C° 1.4 mm 1 mps 737 mmHg 92%
    08:00 +1°C° 1.4 mm 1 mps 736 mmHg 95%
    09:00 0°C° 1.4 mm 0 mps 736 mmHg 98%
    10:00 +1°C° 0.4 mm 1 mps 736 mmHg 99%
    11:00 +2°C° 0.4 mm 1 mps 736 mmHg 99%
    12:00 +1°C° 0.4 mm 2 mps 736 mmHg 100%
    13:00 0°C° 0 mm 3 mps 736 mmHg 99%
    14:00 0°C° 0 mm 3 mps 736 mmHg 99%
    15:00 0°C° 0 mm 3 mps 736 mmHg 99%
    16:00 -1°C° 0 mm 4 mps 736 mmHg 99%
    17:00 -1°C° 0 mm 4 mps 736 mmHg 99%
    18:00 -1°C° 0 mm 4 mps 736 mmHg 99%
    19:00 -1°C° 0.6 mm 4 mps 736 mmHg 98%
    20:00 -1°C° 0.6 mm 5 mps 736 mmHg 96%
    21:00 -1°C° 0.6 mm 5 mps 737 mmHg 95%
    22:00 -1°C° 0.1 mm 5 mps 737 mmHg 93%
    23:00 -2°C° 0.1 mm 5 mps 737 mmHg 91%

    Day after tomorrow, 27 March, Wednesday

    Time Temperature Precipitation Wind Pressure Humidity
    00:00 -4°C° 0.1 mm 5 mps 737 mmHg 89%
    01:00 -4°C° 0 mm 4 mps 738 mmHg 89%
    02:00 -4°C° 0 mm 4 mps 738 mmHg 89%
    03:00 -5°C° 0 mm 4 mps 738 mmHg 89%
    04:00 -5°C° 0 mm 4 mps 739 mmHg 89%
    05:00 -6°C° 0 mm 3 mps 739 mmHg 89%
    06:00 -6°C° 0 mm 3 mps 740 mmHg 89%
    07:00 -5°C° 0 mm 3 mps 740 mmHg 88%
    08:00 -5°C° 0 mm 3 mps 741 mmHg 88%
    09:00 -4°C° 0 mm 3 mps 741 mmHg 88%
    10:00 -2°C° 0 mm 3 mps 742 mmHg 89%
    11:00 -2°C° 0 mm 2 mps 742 mmHg 89%
    12:00 -1°C° 0 mm 2 mps 743 mmHg 90%
    13:00 -1°C° 0 mm 2 mps 743 mmHg 91%
    14:00 +1°C° 0 mm 2 mps 743 mmHg 92%
    15:00 +1°C° 0 mm 2 mps 743 mmHg 93%
    16:00 -1°C° 0 mm 2 mps 744 mmHg 89%
    17:00 -1°C° 0 mm 2 mps 744 mmHg 86%
    18:00 -2°C° 0 mm 2 mps 744 mmHg 83%
    19:00 -2°C° 0 mm 2 mps 744 mmHg 82%
    20:00 -3°C° 0 mm 2 mps 745 mmHg 81%
    21:00 -4°C° 0 mm 2 mps 746 mmHg 80%
    22:00 -5°C° 0 mm 3 mps 746 mmHg 82%
    23:00 -5°C° 0 mm 3 mps 746 mmHg 83%

    28 March, Thursday

    Time Temperature Precipitation Wind Pressure Humidity
    00:00 -5°C° 0 mm 3 mps 746 mmHg 85%
    01:00 -6°C° 0 mm 3 mps 747 mmHg 86%
    02:00 -6°C° 0 mm 3 mps 747 mmHg 88%
    03:00 -7°C° 0 mm 4 mps 747 mmHg 89%
    04:00 -7°C° 0 mm 4 mps 747 mmHg 90%
    05:00 -7°C° 0 mm 4 mps 747 mmHg 90%
    06:00 -7°C° 0 mm 4 mps 748 mmHg 91%
    07:00 -7°C° 0 mm 4 mps 748 mmHg 90%
    08:00 -6°C° 0 mm 5 mps 749 mmHg 89%
    09:00 -6°C° 0 mm 5 mps 749 mmHg 88%
    10:00 -5°C° 0 mm 5 mps 749 mmHg 86%
    11:00 -5°C° 0 mm 5 mps 750 mmHg 84%
    12:00 -4°C° 0 mm 5 mps 750 mmHg 82%
    13:00 -4°C° 0 mm 5 mps 750 mmHg 81%
    14:00 -4°C° 0 mm 5 mps 750 mmHg 80%
    15:00 -2°C° 0 mm 5 mps 750 mmHg 79%
    16:00 -2°C° 0 mm 4 mps 750 mmHg 79%
    17:00 -2°C° 0 mm 4 mps 750 mmHg 80%
    18:00 -3°C° 0 mm 4 mps 750 mmHg 80%
    19:00 -2°C° 0 mm 3 mps 750 mmHg 81%
    20:00 -4°C° 0 mm 3 mps 751 mmHg 81%
    21:00 -5°C° 0 mm 3 mps 751 mmHg 81%
    22:00 -5°C° 0 mm 3 mps 751 mmHg 82%
    23:00 -5°C° 0 mm 3 mps 750 mmHg 82%

    29 March, Friday

    Time Temperature Precipitation Wind Pressure Humidity
    00:00 -5°C° 0 mm 3 mps 750 mmHg 82%
    01:00 -5°C° 0 mm 3 mps 750 mmHg 81%
    02:00 -5°C° 0 mm 4 mps 749 mmHg 79%
    03:00 -4°C° 0 mm 4 mps 749 mmHg 77%
    04:00 -5°C° 0 mm 5 mps 748 mmHg 79%
    05:00 -5°C° 0 mm 5 mps 747 mmHg 80%
    06:00 -5°C° 0 mm 6 mps 747 mmHg 81%
    07:00 -4°C° 0.3 mm 6 mps 746 mmHg 84%
    08:00 -3°C° 0.3 mm 7 mps 746 mmHg 87%
    09:00 -2°C° 0.3 mm 7 mps 745 mmHg 90%
    10:00 -2°C° 0 mm 7 mps 745 mmHg 92%
    11:00 -1°C° 0 mm 7 mps 744 mmHg 94%
    12:00 -1°C° 0 mm 7 mps 744 mmHg 95%
    13:00 -1°C° 0 mm 6 mps 744 mmHg 93%
    14:00 +1°C° 0 mm 6 mps 744 mmHg 91%
    15:00 +1°C° 0 mm 6 mps 744 mmHg 89%
    16:00 +1°C° 0 mm 6 mps 744 mmHg 86%
    17:00 +1°C° 0 mm 5 mps 744 mmHg 83%
    18:00 +1°C° 0 mm 5 mps 745 mmHg 80%
    19:00 0°C° 0 mm 4 mps 745 mmHg 82%
    20:00 -1°C° 0 mm 4 mps 746 mmHg 85%
    21:00 0°C° 0 mm 3 mps 746 mmHg 87%
    22:00 -1°C° 0 mm 3 mps 746 mmHg 88%
    23:00 -1°C° 0 mm 3 mps 747 mmHg 89%

    30 March, Saturday

    Time Temperature Precipitation Wind Pressure Humidity
    00:00 -1°C° 0 mm 2 mps 747 mmHg 90%
    01:00 -1°C° 0 mm 2 mps 747 mmHg 91%
    02:00 -1°C° 0 mm 2 mps 747 mmHg 91%
    03:00 +1°C° 0 mm 1 mps 747 mmHg 91%
    04:00 +1°C° 0 mm 1 mps 747 mmHg 92%
    05:00 +1°C° 0 mm 1 mps 747 mmHg 92%
    06:00 +1°C° 0 mm 1 mps 747 mmHg 93%
    07:00 -1°C° 0 mm 2 mps 747 mmHg 94%
    08:00 +1°C° 0 mm 2 mps 747 mmHg 95%
    09:00 +2°C° 0 mm 2 mps 747 mmHg 96%
    10:00 +2°C° 0 mm 2 mps 747 mmHg 96%
    11:00 +3°C° 0 mm 2 mps 747 mmHg 96%
    12:00 +3°C° 0 mm 2 mps 747 mmHg 96%
    13:00 +2°C° 0 mm 3 mps 747 mmHg 97%
    14:00 +2°C° 0 mm 3 mps 747 mmHg 98%
    15:00 +3°C° 0 mm 3 mps 746 mmHg 99%
    16:00 +2°C° 0 mm 3 mps 746 mmHg 98%
    17:00 +2°C° 0 mm 3 mps 746 mmHg 98%
    18:00 +2°C° 0 mm 3 mps 746 mmHg 98%
    19:00 +2°C° 0 mm 3 mps 746 mmHg 98%
    20:00 +2°C° 0 mm 3 mps 746 mmHg 98%
    21:00 +1°C° 0 mm 3 mps 746 mmHg 98%
    22:00 +2°C° 0 mm 3 mps 746 mmHg 96%
    23:00 +2°C° 0 mm 3 mps 746 mmHg 94%
    Show more